EW9744 Weather Reports


Display with metric or nautical units.
time (UTC)temp
F
wind
direction
speed
MPH
gust
MPH
rain 1hr
in
rain 24hr
in
rain mn
in
humidity
%
barometer
mb
20260502163029 57 116 1.0 4.0 0.00 0.00 0.00 78 1017.8
20260502161533 57 43 2.0 5.0 0.00 0.00 0.00 78 1017.7
20260502151530 55 127 1.0 3.0 0.00 0.00 0.00 81 1017.4
20260502140106 53 215 2.0 4.0 0.00 0.00 0.00 82 1016.7
20260502130145 54 356 2.0 3.0 0.00 0.00 0.00 78 1016.3
20260502123030 57 224 2.0 4.0 0.00 0.00 0.00 73 1016.2
20260502121604 56 245 3.0 7.0 0.00 0.00 0.00 75 1016.3
20260502113102 54 222 5.0 8.0 0.00 0.00 0.00 80 1016.4
20260502111530 55 135 2.0 4.0 0.00 0.00 0.00 79 1016.3
20260502110040 54 322 3.0 6.0 0.00 0.00 0.00 80 1016.5
20260502104532 54 282 2.0 4.0 0.00 0.00 0.00 80 1016.9
20260502103030 54 246 2.0 4.0 0.00 0.00 0.00 79 1017.1
20260502101532 55 265 1.0 3.0 0.00 0.00 0.00 77 1017.0
20260502091532 57 228 4.0 7.0 0.00 0.00 0.00 75 1017.4
20260502071535 57 218 3.0 6.0 0.00 0.00 0.00 73 1017.4
20260502070031 57 319 2.0 4.0 0.00 0.00 0.00 73 1017.4
20260502064532 58 297 3.0 5.0 0.00 0.00 0.00 71 1017.6
20260502063030 58 309 0.0 3.0 0.00 0.00 0.00 69 1017.7
20260502061646 59 272 1.0 4.0 0.00 0.00 0.00 68 1017.6
20260502060147 60 240 3.0 7.0 0.00 0.00 0.00 67 1017.4
20260502053030 60 305 4.0 7.0 0.00 0.00 0.00 67 1017.3
20260502051531 60 269 4.0 5.0 0.00 0.00 0.00 66 1017.4
20260502050107 61 301 0.0 4.0 0.00 0.00 0.00 63 1017.2
20260502044526 62 268 1.0 4.0 0.00 0.00 0.00 62 1017.1
20260502043030 63 178 3.0 8.0 0.00 0.00 0.00 61 1016.9
20260502041531 61 302 6.0 11.0 0.00 0.00 0.00 63 1016.5
20260502040034 62 289 5.0 8.0 0.00 0.00 0.00 61 1016.7
20260502034531 64 301 3.0 5.0 0.00 0.00 0.00 57 1016.7
20260502033027 65 85 1.0 5.0 0.00 0.00 0.00 55 1016.5
20260502030030 66 218 2.0 7.0 0.00 0.00 0.00 52 1016.1
20260502023031 68 292 9.0 17.0 0.00 0.00 0.00 47 1015.4
20260502021530 70 291 8.0 14.0 0.00 0.00 0.00 45 1015.3
20260502020029 72 315 5.0 9.0 0.00 0.00 0.00 42 1015.4
20260502014531 75 330 3.0 6.0 0.00 0.00 0.00 37 1015.4
20260502013030 75 317 3.0 5.0 0.00 0.00 0.00 36 1015.4
20260502011529 78 347 3.0 7.0 0.00 0.00 0.00 31 1015.5
20260502010041 78 46 1.0 4.0 0.00 0.00 0.00 31 1015.5
20260502004532 78 42 2.0 7.0 0.00 0.00 0.00 32 1015.6
20260502001605 78 18 4.0 9.0 0.00 0.00 0.00 32 1015.7
20260502000106 77 67 4.0 10.0 0.00 0.00 0.00 32 1015.8
20260501234530 76 45 4.0 10.0 0.00 0.00 0.00 33 1016.0
20260501230030 76 34 4.0 11.0 0.00 0.00 0.00 34 1016.5
20260501223031 76 27 7.0 12.0 0.00 0.00 0.00 33 1016.9
20260501220030 75 37 6.0 13.0 0.00 0.00 0.00 34 1017.4
20260501213030 74 40 5.0 11.0 0.00 0.00 0.00 36 1017.7
20260501211607 74 25 2.0 10.0 0.00 0.00 0.00 36 1017.8
20260501210030 74 25 6.0 11.0 0.00 0.00 0.00 36 1017.9
20260501204532 74 48 4.0 11.0 0.00 0.00 0.00 36 1018.0
20260501203031 72 43 3.0 11.0 0.00 0.00 0.00 37 1018.3
20260501201529 71 40 4.0 10.0 0.00 0.00 0.00 38 1018.3
20260501200029 71 51 4.0 12.0 0.00 0.00 0.00 38 1018.5
20260501193033 71 45 5.0 9.0 0.00 0.00 0.00 39 1018.7
20260501191536 69 67 3.0 8.0 0.00 0.00 0.00 40 1018.8
20260501190026 68 88 2.0 8.0 0.00 0.00 0.00 41 1018.9
20260501184530 66 10 4.0 10.0 0.00 0.00 0.00 42 1019.1
20260501183032 65 15 4.0 9.0 0.00 0.00 0.00 42 1019.2
20260501181532 65 22 5.0 9.0 0.00 0.00 0.00 43 1019.2
20260501180041 65 6 4.0 10.0 0.00 0.00 0.00 43 1019.3
20260501174532 64 38 8.0 11.0 0.00 0.00 0.00 42 1019.3
20260501173030 64 35 6.0 9.0 0.00 0.00 0.00 42 1019.4
20260501170032 62 30 5.0 9.0 0.00 0.00 0.00 45 1019.5